Weather observations for the past three days for
Waterville, Waterville Robert LaFleur Airport
Imperial (Metric)
Date Time (edt) Wind (mph) Vis. (mi.) Weather Sky Cond. Temperature (ºF) Relative Humidity Wind Chill (°F) Heat Index (°F) Pressure Precipitation (in)
Air Dwpt 6 hour altimeter (in) sea level (mb) 1 hr 3 hr 6 hr
Max. Min.
03 14:56 Vrbl 6 10.00 Overcast OVC060 46.9 39.9 77% 45 29.62 1003.9
03 13:56 N 12 10.00 Overcast FEW018 SCT043 OVC050 45 39 45 41 80% 40 29.63 1004.1
03 12:56 N 16 G 20 10.00 Light Rain FEW013 BKN017 OVC036 43 39.9 89% 36 29.63 1004.2
03 11:56 N 15 G 18 10.00 Light Rain BKN013 BKN022 OVC027 42.1 39 89% 35 29.65 1004.8
03 10:56 N 18 10.00 Light Rain BKN013 OVC034 41 37.9 89% 33 29.66 1005.1
03 09:56 N 15 10.00 Light Rain FEW010 BKN027 OVC033 41 39 93% 34 29.68 1005.9
03 08:56 N 14 10.00 Light Rain FEW006 SCT009 OVC027 41 39 93% 34 29.7 1006.5
03 07:56 N 12 10.00 Light Rain OVC022 41 39.9 41 41 96% 35 29.71 1006.7
03 06:56 N 8 10.00 Light Rain OVC005 41 39.9 96% 36 29.72 1007.1
03 05:56 N 7 9.00 Light Rain OVC003 41 39.9 96% 37 29.72 1007.0
03 04:56 N 7 8.00 Light Rain OVC003 41 39.9 96% 37 29.73 1007.6
03 03:56 N 6 5.00 Light Rain Fog/Mist OVC003 41 39.9 96% 38 29.75 1008.1
03 02:56 N 8 7.00 Light Rain OVC003 41 39.9 96% 36 29.76 1008.5
03 01:56 N 9 5.00 Fog/Mist OVC003 41 41 41 41 100% 36 29.77 1008.9
03 00:56 N 7 5.00 Fog/Mist OVC003 41 41 100% 37 29.8 1009.9
02 23:56 N 5 10.00 Light Rain OVC005 41 41 100% 38 29.83 1010.8
02 22:56 N 7 10.00 Light Rain OVC005 41 39.9 96% 37 29.83 1010.9
02 21:56 N 6 9.00 Light Rain OVC007 41 39.9 96% 38 29.85 1011.4
02 20:56 N 8 10.00 Light Rain OVC007 41 39.9 96% 36 29.85 1011.5
02 19:56 N 7 5.00 Light Rain Fog/Mist OVC012 41 39.9 43 41 96% 37 29.85 1011.6
02 18:56 N 7 10.00 Light Rain FEW006 OVC014 42.1 41 96% 38 29.85 1011.4
02 17:56 N 6 10.00 Light Rain SCT007 OVC015 43 41 93% 40 29.85 1011.6
02 16:56 N 9 10.00 Overcast SCT007 OVC017 43 41 93% 38 29.85 1011.7
02 15:56 N 7 10.00 Overcast OVC019 43 39.9 89% 39 29.86 1012.0
02 13:56 NE 5 10.00 Light Rain OVC023 42.1 39 44.1 39.9 89% 40 29.88 1012.6
02 12:56 Vrbl 3 10.00 Light Rain BKN019 OVC024 43 37.9 82% 29.89 1012.8
02 11:56 Vrbl 3 10.00 Light Rain SCT019 OVC025 43 37.9 82% 29.91 1013.5
02 10:56 Vrbl 3 10.00 Light Rain FEW027 OVC042 43 37 80% 29.93 1014.2
02 09:56 Calm 10.00 Light Rain FEW031 BKN040 OVC060 44.1 37 76% 29.93 1014.3
02 08:56 Calm 10.00 Light Rain OVC038 42.1 37 82% 29.93 1014.3
02 07:56 Calm 10.00 Overcast OVC070 39.9 33.1 39.9 33.1 77% 29.94 1014.5
02 06:56 Calm 10.00 Overcast OVC080 37 33.1 86% 29.92 1014.0
02 05:56 N 7 10.00 Overcast OVC100 35.1 32 89% 30 29.88 1012.7
02 04:56 Calm 10.00 Overcast OVC080 35.1 30.9 85% 29.9 1013.2
02 03:56 Calm 10.00 Partly Cloudy SCT100 33.1 30 89% 29.88 1012.7
02 02:56 Calm 10.00 Fair CLR 37 30 76% 29.87 1012.2
02 01:56 N 3 10.00 Fair CLR 37 28.9 52 34 73% 29.87 1012.0
02 00:56 Calm 10.00 Fair CLR 37 28.9 73% 29.86 1012.0
01 23:56 Calm 10.00 Fair CLR 39.9 28.9 65% 29.86 1011.8
01 22:56 Calm 10.00 Fair CLR 43 28 56% 29.85 1011.4
01 21:56 Calm 10.00 Fair CLR 46 26.1 46% 29.85 1011.6
01 20:56 NW 7 10.00 Fair CLR 48.9 24.1 38% 46 29.84 1011.0
01 19:56 NW 9 10.00 Fair CLR 51.1 24.1 57.9 51.1 35% 29.8 1009.8
01 18:56 NW 14 G 20 10.00 Fair CLR 55 24.1 30% 29.77 1008.5
01 17:56 NW 13 G 18 10.00 Fair CLR 57 25 29% 29.74 1007.8
01 16:56 NW 12 10.00 Fair CLR 57 26.1 30% 29.73 1007.3
01 15:56 NW 12 G 18 10.00 Fair CLR 57.9 34 41% 29.71 1006.6
01 14:56 NW 10 G 21 10.00 A Few Clouds FEW055 57 33.1 41% 29.71 1006.5
01 13:56 W 15 G 23 10.00 Partly Cloudy SCT055 57.9 35.1 57.9 46 42% 29.71 0.0
01 12:56 NW 9 G 17 10.00 Mostly Cloudy BKN049 57 36 45% 29.71 1006.5
01 11:56 Vrbl 7 10.00 Partly Cloudy SCT038 54 36 51% 29.71 1006.7
01 10:56 NW 8 10.00 Fair CLR 52 36 55% 29.72 1007.1
01 09:56 Vrbl 7 10.00 Mostly Cloudy BKN060 50 37 61% 48 29.73 1007.3
01 08:56 NW 10 10.00 Overcast OVC060 46.9 36 66% 43 29.72 1007.2
01 07:56 NW 7 10.00 Overcast FEW029 OVC070 46 37.9 73% 43 29.72 1007.1
01 06:56 W 6 10.00 Mostly Cloudy BKN070 46 39.9 79% 44 29.71 1006.7
01 05:56 NW 8 10.00 Overcast OVC060 45 41 86% 41 29.69 1006.1
01 04:56 W 3 10.00 Light Rain BKN046 OVC055 45 43 93% 29.68 1005.7
01 03:56 NW 6 10.00 Overcast OVC044 46 43 89% 44 29.67 1005.4
01 02:56 W 5 10.00 Overcast OVC044 46 45 96% 44 29.67 1005.4
01 01:56 NW 3 10.00 Overcast FEW007 OVC050 0 0 46 46 0% 29.67 0.0
01 00:56 N 6 7.00 Overcast OVC005 46 46 100% 44 29.67 1005.5
30 23:56 NW 7 5.00 Fog/Mist OVC005 46 46 100% 43 29.67 1005.5
30 22:56 NW 5 2.50 Fog/Mist BKN007 OVC013 46 46 100% 44 29.68 1005.7
30 21:56 NW 3 7.00 Overcast OVC007 46 45 96% 29.69 1006.2
30 20:56 Calm 8.00 Overcast BKN009 OVC016 46 45 96% 29.69 1006.2
30 19:56 NE 6 10.00 Overcast OVC009 46 45 46 44.1 96% 44 29.68 1005.8
30 18:56 NE 6 10.00 Light Rain OVC005 46 45 96% 44 29.69 1006.1
30 17:56 NE 7 10.00 Light Rain BKN006 OVC010 46 45 96% 43 29.68 0.0
30 16:56 Vrbl 5 4.00 Light Rain Fog/Mist FEW004 OVC015 45 44.1 97% 43 29.71 0.0
30 15:56 NE 5 5.00 Light Rain Fog/Mist BKN005 OVC011 45 44.1 97% 43 29.72 1007.1
Date Time (edt) Wind (mph) Vis. (mi.) Weather Sky Cond. Air Dwpt Max. Min. Relative Humidity Wind Chill (°F) Heat Index (°F) altimeter (in) sea level (mb) 1 hr 3 hr 6 hr
6 hour
Temperature (ºF) Pressure Precipitation (in)